PAS115 WIII-WAHS

Flight info

Callsign PAS115
Flight time 0h 43m
Altitude 25000
Route CA2D CA CA1E
Aircraft A20N/M-SDE2E3FGHIRWXY/LB1

Departure

Time 2026-04-11 09:07
Airport Soekarno-Hatta International Airport (WIII)

Arrival

Time 2026-04-11 09:50
Airport Jenderal Ahmad Yani Airport (WAHS)
Time Latitude Longitude Altitude Speed Heading
2026-04-11 08:46 -6.11924 106.66071 38 ft 0 kts 144°
2026-04-11 08:56 -6.11923 106.66070 38 ft 1 kts 145°
2026-04-11 08:56 -6.11909 106.66061 37 ft 3 kts 151°
2026-04-11 08:56 -6.11893 106.66053 38 ft 3 kts 158°
2026-04-11 08:56 -6.11874 106.66047 35 ft 3 kts 163°
2026-04-11 08:57 -6.11856 106.66041 35 ft 3 kts 161°
2026-04-11 08:57 -6.11840 106.66035 34 ft 3 kts 160°
2026-04-11 08:57 -6.11822 106.66032 34 ft 3 kts 198°
2026-04-11 08:57 -6.11807 106.66041 35 ft 3 kts 236°
2026-04-11 08:58 -6.11802 106.66050 34 ft 1 kts 243°
2026-04-11 08:58 -6.11801 106.66050 34 ft 1 kts 243°
2026-04-11 09:02 -6.11802 106.66031 36 ft 5 kts 282°
2026-04-11 09:02 -6.11757 106.66001 37 ft 11 kts 337°
2026-04-11 09:02 -6.11670 106.65965 37 ft 15 kts 338°
2026-04-11 09:02 -6.11572 106.65922 38 ft 16 kts 333°
2026-04-11 09:03 -6.11474 106.65922 37 ft 15 kts 58°
2026-04-11 09:03 -6.11441 106.66006 38 ft 13 kts 68°
2026-04-11 09:03 -6.11408 106.66088 38 ft 11 kts 69°
2026-04-11 09:03 -6.11381 106.66157 37 ft 10 kts 68°
2026-04-11 09:04 -6.11357 106.66217 38 ft 9 kts 68°
2026-04-11 09:04 -6.11336 106.66270 38 ft 8 kts 68°
2026-04-11 09:04 -6.11307 106.66344 37 ft 15 kts 68°
2026-04-11 09:04 -6.11257 106.66467 38 ft 22 kts 68°
2026-04-11 09:05 -6.11196 106.66620 38 ft 24 kts 68°
2026-04-11 09:05 -6.11132 106.66779 36 ft 25 kts 68°
2026-04-11 09:05 -6.11071 106.66927 38 ft 17 kts 60°
2026-04-11 09:05 -6.10973 106.66957 37 ft 16 kts 331°
2026-04-11 09:06 -6.10910 106.66867 36 ft 13 kts 272°
2026-04-11 09:06 -6.10919 106.66825 36 ft 0 kts 248°
2026-04-11 09:07 -6.10985 106.66657 37 ft 67 kts 249°
2026-04-11 09:07 -6.11257 106.65968 36 ft 143 kts 249°
2026-04-11 09:07 -6.11703 106.64895 417 ft 170 kts 250°
2026-04-11 09:07 -6.12134 106.63815 1373 ft 166 kts 253°
2026-04-11 09:08 -6.12147 106.62622 2128 ft 180 kts 282°
2026-04-11 09:08 -6.11785 106.61353 2867 ft 197 kts 286°
2026-04-11 09:08 -6.11342 106.59970 3572 ft 212 kts 286°
2026-04-11 09:08 -6.10879 106.58513 3974 ft 229 kts 285°
2026-04-11 09:09 -6.10392 106.56923 4526 ft 246 kts 285°
2026-04-11 09:09 -6.09884 106.55210 5110 ft 263 kts 285°
2026-04-11 09:09 -6.09177 106.53494 5862 ft 272 kts 303°
2026-04-11 09:09 -6.07806 106.52167 6720 ft 277 kts 328°
2026-04-11 09:10 -6.05969 106.51545 7525 ft 285 kts 353°
2026-04-11 09:10 -6.03992 106.51781 7880 ft 291 kts 19°
2026-04-11 09:10 -6.02250 106.52801 7991 ft 294 kts 40°
2026-04-11 09:10 -6.00932 106.54381 8001 ft 295 kts 60°
2026-04-11 09:11 -6.00185 106.56295 7987 ft 296 kts 78°
2026-04-11 09:11 -5.99898 106.58339 8289 ft 296 kts 82°
2026-04-11 09:11 -5.99622 106.60381 9014 ft 300 kts 82°
2026-04-11 09:11 -5.99327 106.62480 9770 ft 304 kts 81°
2026-04-11 09:12 -5.99025 106.64591 10334 ft 313 kts 81°
2026-04-11 09:12 -5.98708 106.66814 10674 ft 329 kts 81°
2026-04-11 09:12 -5.98378 106.69150 10992 ft 346 kts 81°
2026-04-11 09:12 -5.98035 106.71583 11299 ft 360 kts 81°
2026-04-11 09:13 -5.97679 106.74111 11848 ft 366 kts 81°
2026-04-11 09:13 -5.97322 106.76654 12489 ft 370 kts 82°
2026-04-11 09:13 -5.96964 106.79216 13129 ft 373 kts 82°
2026-04-11 09:13 -5.96709 106.81819 13737 ft 376 kts 89°
2026-04-11 09:14 -5.96949 106.84442 14277 ft 379 kts 102°
2026-04-11 09:14 -5.97718 106.86979 14815 ft 382 kts 113°
2026-04-11 09:14 -5.98782 106.89448 15340 ft 385 kts 114°
2026-04-11 09:14 -5.99842 106.91924 15869 ft 388 kts 114°
2026-04-11 09:15 -6.00905 106.94421 16394 ft 391 kts 114°
2026-04-11 09:15 -6.01978 106.96953 16910 ft 394 kts 114°
2026-04-11 09:15 -6.03053 106.99491 17436 ft 396 kts 114°
2026-04-11 09:15 -6.04118 107.02006 17943 ft 399 kts 114°
2026-04-11 09:16 -6.05229 107.04627 18431 ft 402 kts 114°
2026-04-11 09:16 -6.06313 107.07178 18873 ft 404 kts 114°
2026-04-11 09:16 -6.07421 107.09786 19331 ft 406 kts 114°
2026-04-11 09:16 -6.08531 107.12398 19783 ft 408 kts 114°
2026-04-11 09:17 -6.09650 107.15031 20241 ft 410 kts 114°
2026-04-11 09:17 -6.10774 107.17679 20691 ft 413 kts 114°
2026-04-11 09:17 -6.11905 107.20346 21136 ft 415 kts 114°
2026-04-11 09:17 -6.13033 107.23009 21558 ft 417 kts 114°
2026-04-11 09:18 -6.14181 107.25710 21976 ft 420 kts 114°
2026-04-11 09:18 -6.15331 107.28416 22383 ft 422 kts 114°
2026-04-11 09:18 -6.16485 107.31136 22777 ft 425 kts 114°
2026-04-11 09:18 -6.17645 107.33877 23166 ft 427 kts 114°
2026-04-11 09:19 -6.18815 107.36644 23521 ft 429 kts 114°
2026-04-11 09:19 -6.19985 107.39409 23826 ft 432 kts 114°
2026-04-11 09:19 -6.21161 107.42190 24135 ft 433 kts 114°
2026-04-11 09:19 -6.22342 107.44989 24440 ft 435 kts 114°
2026-04-11 09:20 -6.23523 107.47797 24738 ft 437 kts 114°
2026-04-11 09:20 -6.24329 107.49710 24835 ft 437 kts 114°
2026-04-11 09:20 -6.25528 107.52549 24879 ft 434 kts 114°
2026-04-11 09:20 -6.26709 107.55333 24876 ft 434 kts 114°
2026-04-11 09:21 -6.27898 107.58134 24877 ft 434 kts 114°
2026-04-11 09:21 -6.29084 107.60933 24879 ft 434 kts 114°
2026-04-11 09:21 -6.30269 107.63732 24879 ft 434 kts 114°
2026-04-11 09:21 -6.31448 107.66524 24880 ft 434 kts 114°
2026-04-11 09:22 -6.32635 107.69338 24878 ft 434 kts 114°
2026-04-11 09:22 -6.33800 107.72103 24883 ft 434 kts 114°
2026-04-11 09:22 -6.34978 107.74898 24885 ft 434 kts 114°
2026-04-11 09:22 -6.36157 107.77693 24883 ft 434 kts 114°
2026-04-11 09:23 -6.37351 107.80521 24884 ft 434 kts 114°
2026-04-11 09:23 -6.38527 107.83310 24881 ft 434 kts 114°
2026-04-11 09:23 -6.39690 107.86069 24879 ft 434 kts 114°
2026-04-11 09:23 -6.40868 107.88864 24880 ft 434 kts 114°
2026-04-11 09:24 -6.42056 107.91688 24880 ft 434 kts 114°
2026-04-11 09:24 -6.43225 107.94462 24887 ft 435 kts 114°
2026-04-11 09:24 -6.44419 107.97290 24892 ft 434 kts 114°
2026-04-11 09:24 -6.45573 108.00021 24893 ft 434 kts 114°
2026-04-11 09:25 -6.46777 108.02861 24893 ft 434 kts 114°
2026-04-11 09:25 -6.47977 108.05652 24896 ft 434 kts 114°
2026-04-11 09:25 -6.49187 108.08438 24895 ft 434 kts 114°
2026-04-11 09:25 -6.50407 108.11229 24893 ft 434 kts 115°
2026-04-11 09:26 -6.51617 108.13993 24890 ft 434 kts 114°
2026-04-11 09:26 -6.52832 108.16775 24888 ft 434 kts 114°
2026-04-11 09:26 -6.54041 108.19552 24885 ft 434 kts 114°
2026-04-11 09:26 -6.55236 108.22304 24884 ft 434 kts 114°
2026-04-11 09:27 -6.56458 108.25131 24883 ft 434 kts 114°
2026-04-11 09:27 -6.57656 108.27904 24882 ft 434 kts 114°
2026-04-11 09:27 -6.58863 108.30695 24879 ft 434 kts 114°
2026-04-11 09:27 -6.60055 108.33453 24883 ft 434 kts 114°
2026-04-11 09:28 -6.61265 108.36250 24883 ft 434 kts 114°
2026-04-11 09:28 -6.62457 108.38997 24883 ft 434 kts 114°
2026-04-11 09:28 -6.63666 108.41782 24884 ft 434 kts 114°
2026-04-11 09:28 -6.64870 108.44562 24885 ft 434 kts 114°
2026-04-11 09:29 -6.66078 108.47352 24888 ft 434 kts 114°
2026-04-11 09:29 -6.67282 108.50140 24893 ft 434 kts 114°
2026-04-11 09:29 -6.68481 108.52915 24887 ft 433 kts 114°
2026-04-11 09:29 -6.69591 108.55735 24887 ft 434 kts 108°
2026-04-11 09:30 -6.70255 108.58692 24884 ft 435 kts 99°
2026-04-11 09:30 -6.70728 108.61711 24881 ft 435 kts 100°
2026-04-11 09:30 -6.71201 108.64711 24882 ft 435 kts 100°
2026-04-11 09:30 -6.71677 108.67718 24883 ft 435 kts 100°
2026-04-11 09:31 -6.72157 108.70726 24882 ft 435 kts 100°
2026-04-11 09:31 -6.72643 108.73734 24883 ft 435 kts 100°
2026-04-11 09:31 -6.73124 108.76699 24879 ft 435 kts 100°
2026-04-11 09:31 -6.73609 108.79706 24879 ft 435 kts 100°
2026-04-11 09:32 -6.74092 108.82710 24879 ft 435 kts 100°
2026-04-11 09:32 -6.74573 108.85710 24843 ft 433 kts 100°
2026-04-11 09:32 -6.75047 108.88680 24640 ft 428 kts 100°
2026-04-11 09:32 -6.75516 108.91641 24414 ft 427 kts 100°
2026-04-11 09:33 -6.75980 108.94578 24191 ft 426 kts 100°
2026-04-11 09:33 -6.76445 108.97515 23980 ft 425 kts 100°
2026-04-11 09:33 -6.76913 109.00455 23760 ft 423 kts 100°
2026-04-11 09:33 -6.77380 109.03372 23542 ft 422 kts 100°
2026-04-11 09:34 -6.77850 109.06296 23303 ft 421 kts 100°
2026-04-11 09:34 -6.78315 109.09188 23047 ft 419 kts 100°
2026-04-11 09:34 -6.78778 109.12080 22785 ft 417 kts 100°
2026-04-11 09:34 -6.79235 109.14965 22533 ft 416 kts 99°
2026-04-11 09:35 -6.79661 109.17832 22286 ft 414 kts 99°
2026-04-11 09:35 -6.80064 109.20698 22021 ft 409 kts 99°
2026-04-11 09:35 -6.80449 109.23512 21571 ft 404 kts 98°
2026-04-11 09:35 -6.80831 109.26309 21091 ft 401 kts 98°
2026-04-11 09:36 -6.81209 109.29073 20623 ft 397 kts 98°
2026-04-11 09:36 -6.81590 109.31820 20152 ft 394 kts 99°
2026-04-11 09:36 -6.81966 109.34505 19677 ft 391 kts 99°
2026-04-11 09:36 -6.82346 109.37202 19201 ft 389 kts 99°
2026-04-11 09:37 -6.82726 109.39888 18709 ft 387 kts 98°
2026-04-11 09:37 -6.83104 109.42561 18217 ft 385 kts 98°
2026-04-11 09:37 -6.83482 109.45227 17664 ft 384 kts 99°
2026-04-11 09:37 -6.83858 109.47881 17157 ft 381 kts 99°
2026-04-11 09:38 -6.84228 109.50504 16658 ft 378 kts 98°
2026-04-11 09:38 -6.84595 109.53118 16153 ft 376 kts 98°
2026-04-11 09:38 -6.84959 109.55724 15659 ft 374 kts 98°
2026-04-11 09:38 -6.85320 109.58303 15163 ft 373 kts 98°
2026-04-11 09:39 -6.85682 109.60883 14665 ft 371 kts 98°
2026-04-11 09:39 -6.86045 109.63456 14167 ft 370 kts 98°
2026-04-11 09:39 -6.86406 109.66011 13661 ft 369 kts 98°
2026-04-11 09:39 -6.86765 109.68568 13118 ft 367 kts 98°
2026-04-11 09:40 -6.87120 109.71105 12607 ft 365 kts 98°
2026-04-11 09:40 -6.87474 109.73628 12092 ft 362 kts 98°
2026-04-11 09:40 -6.87823 109.76123 11622 ft 358 kts 98°
2026-04-11 09:40 -6.88168 109.78582 11192 ft 353 kts 98°
2026-04-11 09:41 -6.88511 109.81025 10691 ft 351 kts 98°
2026-04-11 09:41 -6.88848 109.83436 10372 ft 342 kts 98°
2026-04-11 09:41 -6.89170 109.85752 10257 ft 328 kts 98°
2026-04-11 09:41 -6.89415 109.87990 10144 ft 315 kts 91°
2026-04-11 09:42 -6.89244 109.89908 10029 ft 305 kts 80°
2026-04-11 09:42 -6.88881 109.91952 9624 ft 304 kts 80°
2026-04-11 09:42 -6.88496 109.94033 9293 ft 300 kts 80°
2026-04-11 09:43 -6.87725 109.98119 8280 ft 293 kts 80°
2026-04-11 09:43 -6.87350 110.00119 7603 ft 291 kts 80°
2026-04-11 09:43 -6.86987 110.02074 7084 ft 284 kts 80°
2026-04-11 09:43 -6.86625 110.04030 6614 ft 284 kts 81°
2026-04-11 09:44 -6.86263 110.05990 6120 ft 285 kts 81°
2026-04-11 09:44 -6.85902 110.07952 5683 ft 284 kts 80°
2026-04-11 09:44 -6.85541 110.09903 5204 ft 284 kts 81°
2026-04-11 09:44 -6.85180 110.11842 4866 ft 279 kts 81°
2026-04-11 09:45 -6.84828 110.13733 4265 ft 274 kts 81°
2026-04-11 09:45 -6.84483 110.15595 3761 ft 270 kts 80°
2026-04-11 09:45 -6.84140 110.17440 3412 ft 263 kts 80°
2026-04-11 09:45 -6.83817 110.19190 3346 ft 246 kts 82°
2026-04-11 09:46 -6.83813 110.20840 3254 ft 229 kts 103°
2026-04-11 09:46 -6.84355 110.22286 3154 ft 221 kts 122°
2026-04-11 09:46 -6.85291 110.23448 3072 ft 209 kts 133°
2026-04-11 09:46 -6.86250 110.24525 2874 ft 204 kts 132°
2026-04-11 09:47 -6.87170 110.25596 2646 ft 201 kts 131°
2026-04-11 09:47 -6.88067 110.26656 2393 ft 197 kts 131°
2026-04-11 09:47 -6.88942 110.27692 2132 ft 191 kts 131°
2026-04-11 09:47 -6.89776 110.28681 1897 ft 180 kts 131°
2026-04-11 09:48 -6.90565 110.29616 1667 ft 168 kts 131°
2026-04-11 09:48 -6.91297 110.30483 1461 ft 157 kts 131°
2026-04-11 09:48 -6.91988 110.31302 1286 ft 150 kts 131°
2026-04-11 09:48 -6.92660 110.32097 1093 ft 148 kts 131°
2026-04-11 09:49 -6.93323 110.32883 909 ft 147 kts 131°
2026-04-11 09:49 -6.93984 110.33666 727 ft 147 kts 131°
2026-04-11 09:49 -6.94646 110.34450 535 ft 147 kts 131°
2026-04-11 09:49 -6.95309 110.35233 354 ft 146 kts 131°
2026-04-11 09:50 -6.95968 110.36008 149 ft 146 kts 130°
2026-04-11 09:50 -6.96606 110.36782 7 ft 131 kts 130°
2026-04-11 09:50 -6.97012 110.37266 5 ft 68 kts 131°
2026-04-11 09:50 -6.97103 110.37429 5 ft 6 kts 51°
2026-04-11 09:51 -6.97092 110.37435 6 ft 3 kts 27°
2026-04-11 09:51 -6.97073 110.37445 9 ft 3 kts 29°
2026-04-11 09:51 -6.97055 110.37457 12 ft 3 kts 37°
2026-04-11 09:51 -6.97029 110.37477 15 ft 7 kts 38°
2026-04-11 09:52 -6.96982 110.37515 17 ft 9 kts 39°
2026-04-11 09:52 -6.96944 110.37547 18 ft 6 kts 40°
2026-04-11 09:52 -6.96913 110.37560 19 ft 4 kts 355°
2026-04-11 09:52 -6.96896 110.37550 19 ft 2 kts 322°
2026-04-11 09:53 -6.96884 110.37536 19 ft 6 kts 310°
2026-04-11 09:53 -6.96850 110.37496 19 ft 9 kts 310°
2026-04-11 09:53 -6.96813 110.37451 19 ft 8 kts 310°
2026-04-11 09:53 -6.96781 110.37413 19 ft 7 kts 310°
2026-04-11 09:54 -6.96761 110.37409 19 ft 2 kts 35°
2026-04-11 09:54 -6.96746 110.37427 19 ft 3 kts 43°
2026-04-11 09:54 -6.96735 110.37437 19 ft 2 kts 41°
2026-04-11 09:54 -6.96729 110.37442 19 ft 1 kts 40°
2026-04-11 09:55 -6.96725 110.37446 19 ft 0 kts 40°
2026-04-11 09:55 -6.96724 110.37446 19 ft 1 kts 40°
2026-04-11 09:55 -6.96710 110.37458 19 ft 0 kts 39°